STARLINK-35870

Last updated on Wed Dec 31 2025 00:02:06 GMT+0000 (Coordinated Universal Time)

1 66572U 25268R 25364.58335648 .00065463 00000+0 23710-2 0 9999 2 66572 43.0009 17.6461 0001152 270.5968 221.7978 15.27530200 5865
UTC large
Height (km)
Speed (km/s)
/
Latitude / Longitude
Inclination (degrees)
Orbital Period (minutes)
Azimuth
Elevation
Range (km)
Doppler Factor

Next 0 passes for location: London (51.5072 / 0.1276)

Sorry there are no passes over London.